sat.trackr.live / text

‹ back to catalog

STARLINK-36202

NORAD 67094 · 2025-298V

PAYLOAD ACTIVE UNKNOWN

§ Identity

Operator
Country
US
Launch date
2025-12-14
Launch site
AFWTR
Launch vehicle
Mass (kg)
RCS (m²)

Purposes: comms

External: N2YO · Heavens-Above · Gunter

§ Orbital elements

Epoch: 2026-09-19T17:03:49.182624Z

Period
96.10 min
Inclination
69.9998°
Eccentricity
0.0003845
Mean motion
14.98367170 rev/d
Perigee alt
569.3 km
Apogee alt
574.6 km
Semi-major
6,950.1 km
B*
8.8741e-4
RAAN
245.1120°
Arg perigee
265.4352°
Mean anomaly
94.6368°
Rev number
4,228

§ Raw data

STARLINK-362021 67094U 25298V   26262.71098591  .00010522  00000+0  88741-3 0  99902 67094  69.9998 245.1120 0003845 265.4352  94.6368 14.98367170 42288

JSON: /api/v1/satellites/67094 · /tle

For live sub-satellite position, see the globe view (requires WebGL).

§ Visibility from observer

Set your observer location to see the next 7 days of passes ≥ 10°. The values pass through the URL so the page stays shareable.

No JS? Fill the form by hand. The geolocation button needs JavaScript.